Weather History for Grants-Milan, NM

Change the Weather History Date:

Thursday, August 29, 2013

  Actual Average Record
Temperature  
Mean Temperature 72 °F -  
Max Temperature 83 °F 83 °F 92 °F (1990)
Min Temperature 61 °F 50 °F 40 °F (1975)
Cooling Degree Days 7    
Growing Degree Days 22 (Base 50)    
Moisture  
Dew Point 53 °F    
Average Humidity 57    
Maximum Humidity 82    
Minimum Humidity 28    
Precipitation  
Precipitation 0.00 in - - ()
Sea Level Pressure  
Sea Level Pressure 30.35 in    
Wind  
Wind Speed 3 mph (SSE)    
Max Wind Speed 16 mph    
Max Gust Speed 20 mph    
Visibility 10 miles    
Events Rain , Thunderstorm    
Averages and records for this station are not official NWS values.
T = Trace of Precipitation, MM = Missing Value Source: NWS Daily Summary

Daily Weather History Graph

Daily Weather History Graph

Search for Another Location

Airport:

Trip Planner

Search our weather history database for the weather conditions in past years. The results will help you decide how hot, cold, wet, or windy it might be!

Date:

Astronomy

Aug. 29, 2013 Rise Set
Actual Time 6:42 AM MDT 7:42 PM MDT
Civil Twilight 6:16 AM MDT 8:08 PM MDT
Nautical Twilight 5:45 AM MDT 8:38 PM MDT
Astronomical Twilight 5:13 AM MDT 9:10 PM MDT
Moon 12:42 AM MDT (8/29) 3:06 PM MDT (8/29)
Length of Visible Light 13h 51m
Length of Day
12h 59m
Last Quarter, 37% of the Moon is Illuminated
Aug 29
Last Quarter
Sep 5
New
Sep 12
First Quarter
Sep 19
Full
Sep 26
Last Quarter

Hourly Weather History & Observations

Time (MDT) Temp. Dew Point Humidity Pressure Visibility Wind Dir Wind Speed Gust Speed Precip Events Conditions
12:15 AM 65.3 °F 53.1 °F 65% 30.35 in 10.0 mi Calm Calm - N/A   Clear
12:35 AM 66.0 °F 52.7 °F 62% 30.36 in 10.0 mi SSW 6.9 mph - N/A   Clear
12:55 AM 66.0 °F 52.3 °F 61% 30.36 in 10.0 mi South 4.6 mph - N/A   Clear
1:15 AM 66.4 °F 52.3 °F 61% 30.35 in 10.0 mi Calm Calm - N/A   Scattered Clouds
1:35 AM 65.3 °F 52.5 °F 63% 30.36 in 10.0 mi Calm Calm - N/A   Mostly Cloudy
1:55 AM 66.0 °F 52.3 °F 61% 30.35 in 10.0 mi Calm Calm - N/A   Overcast
2:15 AM 63.3 °F 53.4 °F 70% 30.35 in 10.0 mi Calm Calm - N/A   Overcast
2:35 AM 64.4 °F 52.7 °F 66% 30.35 in 10.0 mi Calm Calm - N/A   Overcast
2:55 AM 64.8 °F 52.0 °F 63% 30.34 in 10.0 mi Calm Calm - N/A   Overcast
3:15 AM 64.2 °F 52.9 °F 67% 30.34 in 10.0 mi Calm Calm - N/A   Overcast
3:35 AM 64.0 °F 53.8 °F 69% 30.34 in 10.0 mi Calm Calm - N/A   Overcast
3:55 AM 63.5 °F 53.6 °F 70% 30.34 in 10.0 mi Calm Calm - N/A   Overcast
4:15 AM 63.5 °F 54.0 °F 71% 30.34 in 10.0 mi Calm Calm - N/A   Overcast
4:35 AM 63.5 °F 54.0 °F 71% 30.34 in 10.0 mi Calm Calm - N/A   Mostly Cloudy
4:55 AM 62.6 °F 54.7 °F 75% 30.34 in 10.0 mi SSE 3.5 mph - N/A   Overcast
5:15 AM 62.8 °F 54.5 °F 74% 30.34 in 10.0 mi Calm Calm - N/A   Overcast
5:35 AM 63.0 °F 54.3 °F 73% 30.34 in 10.0 mi SSE 4.6 mph - N/A   Overcast
5:55 AM 63.0 °F 54.3 °F 73% 30.34 in 10.0 mi SSE 3.5 mph - N/A   Overcast
6:15 AM 63.7 °F 54.0 °F 71% 30.35 in 10.0 mi Calm Calm - N/A   Overcast
6:35 AM 62.6 °F 54.9 °F 76% 30.35 in 10.0 mi South 5.8 mph - N/A   Overcast
6:55 AM 61.7 °F 55.8 °F 81% 30.36 in 10.0 mi Calm Calm - N/A   Mostly Cloudy
7:15 AM 61.5 °F 56.1 °F 82% 30.36 in 10.0 mi Calm Calm - N/A   Mostly Cloudy
7:35 AM 63.0 °F 54.9 °F 75% 30.37 in 10.0 mi Calm Calm - N/A   Overcast
7:55 AM 63.9 °F 55.2 °F 73% 30.38 in 10.0 mi East 3.5 mph - N/A   Overcast
8:15 AM 64.6 °F 55.6 °F 73% 30.38 in 10.0 mi SE 5.8 mph - N/A   Mostly Cloudy
8:35 AM 65.3 °F 55.4 °F 70% 30.38 in 10.0 mi SE 3.5 mph - N/A   Mostly Cloudy
8:55 AM 67.3 °F 55.4 °F 66% 30.38 in 10.0 mi SE 4.6 mph - N/A   Mostly Cloudy
9:15 AM 69.8 °F 53.8 °F 57% 30.39 in 10.0 mi Calm Calm - N/A   Mostly Cloudy
9:35 AM 70.3 °F 52.9 °F 54% 30.39 in 10.0 mi ESE 4.6 mph - N/A   Scattered Clouds
9:55 AM 70.2 °F 53.2 °F 55% 30.40 in 10.0 mi SE 6.9 mph - N/A   Scattered Clouds
10:15 AM 72.9 °F 53.2 °F 50% 30.40 in 10.0 mi South 3.5 mph - N/A   Scattered Clouds
10:35 AM 74.5 °F 53.1 °F 47% 30.40 in 10.0 mi SE 6.9 mph - N/A   Clear
11:15 AM 75.0 °F 50.9 °F 43% 30.40 in 10.0 mi South 3.5 mph - N/A   Clear
11:55 AM 77.4 °F 50.9 °F 39% 30.38 in 10.0 mi SSE 3.5 mph - N/A   Clear
12:15 PM 77.9 °F 50.0 °F 38% 30.38 in 10.0 mi Calm Calm - N/A   Clear
12:35 PM 77.4 °F 51.3 °F 40% 30.37 in 10.0 mi SSE 5.8 mph - N/A   Scattered Clouds
12:55 PM 79.2 °F 50.4 °F 36% 30.36 in 10.0 mi ESE 9.2 mph - N/A   Scattered Clouds
1:15 PM 79.9 °F 51.1 °F 37% 30.36 in 10.0 mi SE 8.1 mph - N/A   Clear
1:35 PM 80.2 °F 49.6 °F 34% 30.35 in 10.0 mi East 8.1 mph 16.1 mph N/A   Clear
1:55 PM 80.4 °F 49.6 °F 34% 30.35 in 10.0 mi East 6.9 mph - N/A   Clear
2:15 PM 81.7 °F 48.6 °F 31% 30.34 in 10.0 mi East 10.4 mph 16.1 mph N/A   Clear
2:35 PM 82.8 °F 46.6 °F 28% 30.32 in 10.0 mi South 6.9 mph - N/A   Clear
2:55 PM 82.6 °F 48.9 °F 31% 30.32 in 10.0 mi SE 9.2 mph - N/A   Scattered Clouds
3:15 PM 83.1 °F 48.6 °F 30% 30.31 in 10.0 mi SSE 10.4 mph - N/A   Scattered Clouds
3:35 PM 82.4 °F 48.0 °F 30% 30.30 in 10.0 mi SSE 5.8 mph - N/A Thunderstorm Clear
3:55 PM 79.2 °F 48.7 °F 34% 30.30 in 10.0 mi South 9.2 mph - N/A Thunderstorm Clear
4:15 PM 82.2 °F 49.8 °F 32% 30.29 in 10.0 mi SSE 11.5 mph - N/A   Clear
4:35 PM 81.9 °F 51.4 °F 35% 30.30 in 10.0 mi South 16.1 mph 19.6 mph N/A Thunderstorm Clear
4:55 PM 80.4 °F 51.6 °F 37% 30.31 in 10.0 mi South 13.8 mph - N/A   Clear
5:15 PM 76.3 °F 52.9 °F 44% 30.31 in 10.0 mi South 9.2 mph 18.4 mph N/A   Scattered Clouds
5:35 PM 75.9 °F 52.9 °F 45% 30.32 in 10.0 mi South 11.5 mph - N/A Thunderstorm Thunderstorm
5:55 PM 75.9 °F 52.3 °F 44% 30.31 in 10.0 mi South 5.8 mph - N/A Thunderstorm Clear
6:15 PM 75.4 °F 52.2 °F 44% 30.31 in 10.0 mi SE 4.6 mph - N/A   Clear
6:35 PM 74.7 °F 52.7 °F 46% 30.32 in 10.0 mi SSE 4.6 mph - N/A   Clear
6:55 PM 74.3 °F 52.9 °F 47% 30.32 in 10.0 mi South 4.6 mph - N/A Thunderstorm Clear
7:15 PM 73.0 °F 53.6 °F 50% 30.32 in 10.0 mi South 3.5 mph - N/A   Clear
7:35 PM 71.6 °F 53.4 °F 53% 30.32 in 10.0 mi Calm Calm - N/A   Clear
7:55 PM 70.5 °F 53.4 °F 55% 30.33 in 10.0 mi Calm Calm - N/A   Clear
8:15 PM 69.4 °F 55.8 °F 62% 30.34 in 10.0 mi Calm Calm - N/A   Clear
8:35 PM 67.1 °F 55.0 °F 65% 30.35 in 10.0 mi Calm Calm - N/A   Clear
8:55 PM 66.6 °F 55.6 °F 68% 30.35 in 10.0 mi South 3.5 mph - N/A   Clear
9:15 PM 68.2 °F 55.0 °F 63% 30.35 in 10.0 mi Calm Calm - N/A   Clear
9:35 PM 67.1 °F 53.2 °F 61% 30.35 in 10.0 mi SSE 3.5 mph - N/A   Mostly Cloudy
9:55 PM 67.1 °F 51.8 °F 58% 30.36 in 10.0 mi Calm Calm - N/A   Overcast
10:15 PM 66.2 °F 57.7 °F 74% 30.37 in 10.0 mi NNW 5.8 mph - N/A   Overcast
10:35 PM 66.2 °F 58.1 °F 75% 30.37 in 10.0 mi Calm Calm - N/A Rain Light Rain
10:55 PM 65.5 °F 58.3 °F 77% 30.38 in 10.0 mi Calm Calm - N/A   Overcast
11:15 PM 66.7 °F 58.6 °F 75% 30.37 in 10.0 mi Calm Calm - N/A Rain Light Rain
11:35 PM 65.8 °F 59.4 °F 80% 30.37 in 10.0 mi ENE 3.5 mph - N/A   Overcast
11:55 PM 66.2 °F 59.0 °F 78% 30.38 in 10.0 mi Calm Calm - N/A   Overcast